Greenville, NC

5:37 AM EDT on May 29, 2017 (GMT -0400)
Pitt-Greenville

Weather History for KPGV - January, 2013

Change the Weather History Date:

Tuesday, January 15, 2013

  Actual Average Record
Temperature  
Mean Temperature 54 °F -  
Max Temperature 62 °F 49 °F 78 °F (1937)
Min Temperature 46 °F 29 °F 16 °F (1964)
Degree Days  
Heating Degree Days 11    
Growing Degree Days 4 (Base 50)    
Moisture  
Dew Point 49 °F    
Average Humidity 93    
Maximum Humidity 100    
Minimum Humidity 82    
Precipitation  
Precipitation 0.00 in - - ()
Sea Level Pressure  
Sea Level Pressure 30.19 in    
Wind  
Wind Speed 6 mph (ENE)    
Max Wind Speed 13 mph    
Max Gust Speed 17 mph    
Visibility 7 miles    
Events      
Averages and records for this station are not official NWS values.
T = Trace of Precipitation, MM = Missing Value Source: NWS Daily Summary

Daily Weather History Graph

Daily Weather History Graph

Search for Another Location

Airport or City:

Trip Planner

Search our weather history database for the weather conditions in past years. The results will help you decide how hot, cold, wet, or windy it might be!

Date:

Astronomy

Jan. 15, 2013 Rise Set
Actual Time 7:18 AM EST 5:20 PM EST
Civil Twilight 6:50 AM EST 5:47 PM EST
Nautical Twilight 6:19 AM EST 6:19 PM EST
Astronomical Twilight 5:48 AM EST 6:49 PM EST
Moon 9:33 AM EST (1/15) 9:56 PM EST (1/15)
Length of Visible Light 10h 57m
Length of Day
10h 01m
Waxing Crescent, 19% of the Moon is Illuminated
Jan 15
Waxing Crescent
Jan 18
First Quarter
Jan 26
Full
Feb 3
Last Quarter
Feb 10
New

Hourly Weather History & Observations

Time (EST) Temp. Windchill Dew Point Humidity Pressure Visibility Wind Dir Wind Speed Gust Speed Precip Events Conditions
12:15 AM 62.6 °F - 59.0 °F 88% 30.16 in 10.0 mi SSW 3.5 mph - N/A   Scattered Clouds
12:35 AM 62.6 °F - 59.0 °F 88% 30.16 in 10.0 mi SSW 4.6 mph - N/A   Overcast
12:55 AM 62.6 °F - 59.0 °F 88% 30.15 in 10.0 mi SSW 8.1 mph - N/A   Mostly Cloudy
1:15 AM 62.6 °F - 59.0 °F 88% 30.16 in 10.0 mi SW 3.5 mph - N/A   Scattered Clouds
1:35 AM 62.6 °F - 59.0 °F 88% 30.17 in 10.0 mi Calm Calm - N/A   Mostly Cloudy
1:55 AM 62.6 °F - 59.0 °F 88% 30.17 in 10.0 mi North 3.5 mph - N/A   Overcast
2:15 AM 60.8 °F - 57.2 °F 88% 30.18 in 10.0 mi North 10.4 mph - N/A   Overcast
2:35 AM 55.4 °F - 55.4 °F 100% 30.19 in 10.0 mi North 6.9 mph - N/A   Overcast
2:55 AM 55.4 °F - 53.6 °F 94% 30.19 in 10.0 mi NNE 12.7 mph 17.3 mph N/A   Overcast
3:15 AM 55.4 °F - 53.6 °F 94% 30.19 in 10.0 mi North 9.2 mph - N/A   Overcast
3:35 AM 53.6 °F - 51.8 °F 94% 30.19 in 10.0 mi NE 12.7 mph 16.1 mph N/A   Overcast
3:55 AM 53.6 °F - 51.8 °F 94% 30.19 in 10.0 mi NNE 10.4 mph 16.1 mph N/A   Overcast
4:15 AM 51.8 °F - 50.0 °F 94% 30.19 in 10.0 mi NNE 12.7 mph - N/A   Overcast
4:35 AM 50.0 °F - 48.2 °F 94% 30.19 in 10.0 mi NNE 12.7 mph - N/A   Overcast
4:55 AM 50.0 °F - 46.4 °F 87% 30.19 in 10.0 mi North 10.4 mph - N/A   Overcast
5:15 AM 48.2 °F - 46.4 °F 93% 30.19 in 10.0 mi NNE 8.1 mph - N/A   Overcast
5:55 AM 48.2 °F - 46.4 °F 93% 30.18 in 10.0 mi East 5.8 mph - N/A   Overcast
6:15 AM 48.2 °F - 46.4 °F 93% 30.19 in 10.0 mi NE 8.1 mph - N/A   Overcast
6:35 AM 46.4 °F 43.5 °F 44.6 °F 93% 30.19 in 10.0 mi ENE 5.8 mph - N/A   Overcast
6:55 AM 46.4 °F 42.9 °F 44.6 °F 93% 30.19 in 10.0 mi ENE 6.9 mph - N/A   Overcast
7:15 AM 46.4 °F 44.3 °F 44.6 °F 93% 30.20 in 10.0 mi NE 4.6 mph - N/A   Overcast
7:35 AM 46.4 °F 44.3 °F 44.6 °F 93% 30.21 in 10.0 mi ENE 4.6 mph - N/A   Overcast
7:55 AM 46.4 °F 42.9 °F 44.6 °F 93% 30.20 in 10.0 mi ENE 6.9 mph - N/A   Overcast
8:15 AM 48.2 °F - 46.4 °F 93% 30.21 in 10.0 mi ENE 4.6 mph - N/A   Overcast
8:35 AM 48.2 °F - 44.6 °F 87% 30.21 in 10.0 mi ENE 4.6 mph - N/A   Overcast
8:55 AM 48.2 °F - 44.6 °F 87% 30.22 in 10.0 mi ENE 4.6 mph - N/A   Overcast
9:15 AM 48.2 °F - 44.6 °F 87% 30.23 in 10.0 mi East 4.6 mph - N/A   Overcast
9:35 AM 50.0 °F - 44.6 °F 82% 30.23 in 10.0 mi ENE 5.8 mph - N/A   Overcast
9:55 AM 50.0 °F - 44.6 °F 82% 30.24 in 10.0 mi ENE 4.6 mph - N/A   Overcast
10:15 AM 50.0 °F - 46.4 °F 87% 30.23 in 10.0 mi ENE 3.5 mph - N/A   Overcast
10:35 AM 50.0 °F - 46.4 °F 87% 30.23 in 10.0 mi NNE 3.5 mph - N/A   Overcast
10:55 AM 50.0 °F - 46.4 °F 87% 30.24 in 10.0 mi North 8.1 mph - N/A   Overcast
11:15 AM 50.0 °F - 46.4 °F 87% 30.23 in 10.0 mi North 8.1 mph - N/A   Overcast
11:35 AM 50.0 °F - 46.4 °F 87% 30.23 in 10.0 mi North 8.1 mph - N/A   Overcast
11:55 AM 50.0 °F - 46.4 °F 87% 30.22 in 10.0 mi North 8.1 mph - N/A   Overcast
12:15 PM 50.0 °F - 46.4 °F 87% 30.21 in 10.0 mi NNE 9.2 mph - N/A   Overcast
12:35 PM 48.2 °F - 46.4 °F 93% 30.21 in 7.0 mi North 6.9 mph - N/A   Overcast
12:55 PM 48.2 °F - 46.4 °F 93% 30.21 in 4.0 mi NNE 10.4 mph - N/A   Overcast
1:15 PM 48.2 °F - 46.4 °F 93% 30.21 in 3.0 mi NNE 10.4 mph - N/A   Overcast
1:35 PM 48.2 °F - 46.4 °F 93% 30.20 in 2.5 mi NNE 9.2 mph - N/A   Overcast
1:55 PM 48.2 °F - 46.4 °F 93% 30.19 in 4.0 mi NE 10.4 mph - N/A   Overcast
2:15 PM 48.2 °F - 46.4 °F 93% 30.19 in 4.0 mi NNE 8.1 mph - N/A   Overcast
2:35 PM 50.0 °F - 46.4 °F 87% 30.19 in 5.0 mi ENE 5.8 mph - N/A   Overcast
2:55 PM 50.0 °F - 46.4 °F 87% 30.18 in 5.0 mi ENE 5.8 mph - N/A   Overcast
3:15 PM 50.0 °F - 46.4 °F 87% 30.19 in 7.0 mi ENE 6.9 mph - N/A   Overcast
3:35 PM 50.0 °F - 48.2 °F 94% 30.19 in 7.0 mi East 6.9 mph - N/A   Overcast
3:55 PM 50.0 °F - 48.2 °F 94% 30.19 in 10.0 mi ENE 5.8 mph - N/A   Overcast
4:15 PM 50.0 °F - 48.2 °F 94% 30.19 in 7.0 mi ENE 5.8 mph - N/A   Overcast
4:35 PM 50.0 °F - 48.2 °F 94% 30.19 in 5.0 mi ENE 5.8 mph - N/A   Overcast
4:55 PM 50.0 °F - 48.2 °F 94% 30.19 in 5.0 mi East 6.9 mph - N/A   Overcast
5:15 PM 50.0 °F - 48.2 °F 94% 30.19 in 5.0 mi East 5.8 mph - N/A   Overcast
5:35 PM 50.0 °F - 50.0 °F 100% 30.20 in 4.0 mi East 5.8 mph - N/A   Overcast
5:55 PM 50.0 °F - 48.2 °F 94% 30.20 in 4.0 mi East 6.9 mph - N/A   Overcast
6:15 PM 50.0 °F - 48.2 °F 94% 30.20 in 2.5 mi East 4.6 mph - N/A   Overcast
6:35 PM 48.2 °F - 48.2 °F 100% 30.19 in 2.5 mi ENE 8.1 mph - N/A   Overcast
6:55 PM 48.2 °F - 48.2 °F 100% 30.20 in 2.5 mi East 6.9 mph - N/A   Overcast
7:15 PM 48.2 °F - 48.2 °F 100% 30.19 in 2.0 mi ENE 5.8 mph - N/A   Overcast
7:35 PM 48.2 °F - 48.2 °F 100% 30.19 in 2.0 mi East 4.6 mph - N/A   Overcast
7:55 PM 48.2 °F - 48.2 °F 100% 30.19 in 2.5 mi East 3.5 mph - N/A   Overcast
8:15 PM 48.2 °F - 48.2 °F 100% 30.17 in 2.5 mi ENE 5.8 mph - N/A   Overcast
8:35 PM 48.2 °F - 48.2 °F 100% 30.17 in 2.0 mi ENE 5.8 mph - N/A   Overcast
8:55 PM 48.2 °F - 48.2 °F 100% 30.16 in 2.5 mi Calm Calm - N/A   Overcast
9:15 PM 48.2 °F - 48.2 °F 100% 30.15 in 3.0 mi ESE 6.9 mph - N/A   Overcast
9:35 PM 48.2 °F - 48.2 °F 100% 30.15 in 2.0 mi ESE 5.8 mph - N/A   Overcast
9:55 PM 48.2 °F - 48.2 °F 100% 30.14 in 2.5 mi ESE 5.8 mph - N/A   Overcast
10:15 PM 48.2 °F - 48.2 °F 100% 30.13 in 1.5 mi ESE 4.6 mph - N/A   Overcast
10:35 PM 48.2 °F - 48.2 °F 100% 30.12 in 1.0 mi ESE 3.5 mph - N/A   Overcast
10:55 PM 48.2 °F - 48.2 °F 100% 30.12 in 1.0 mi East 3.5 mph - N/A   Overcast
11:15 PM 50.0 °F - 48.2 °F 94% 30.10 in 1.0 mi ESE 3.5 mph - N/A   Overcast
11:35 PM 50.0 °F - 50.0 °F 100% 30.10 in 1.0 mi Calm Calm - N/A   Overcast
11:55 PM 50.0 °F - 50.0 °F 100% 30.10 in 1.2 mi Calm Calm - N/A   Overcast